Retour au catalogue

COSMOS 2491 DEB

LostPO
NORAD 44992·DEBRIS·🇷🇺 Russia

Lancé Dec 25, 2013 depuis Plesetsk Cosmodrome

Loading…

Prochains Passages (prochaines 24 heures)

TLE

PériméSource: Space-Track

Époque: Aug 11, 2026, 09:45 UTC

1 44992U 13076N   26223.40679750  .00001461  00000-0  86711-2 0  9995
2 44992  82.4688 113.1823 0057609  50.3029 310.3118 12.56827576300752

Suivez COSMOS 2491 DEB en temps réel avec AllMySat

Download on the App Store